| time (UTC) | temp F | wind direction | speed MPH | gust MPH | rain 1hr in | rain 24hr in | rain mn in | humidity % | barometer mb |
| 20260903041304 | 72 | 92 | 0.0 | 1.0 | 0.00 | 0.32 | 0.00 | 77 | 1017.5 |
| 20260903040551 | 72 | 163 | 0.0 | 0.0 | 0.00 | 0.32 | 0.00 | 77 | 1017.5 |
| 20260903040237 | 72 | 163 | 0.0 | 0.0 | 0.00 | 0.32 | 0.00 | 77 | 1017.4 |
| 20260903035936 | 72 | 175 | 0.0 | 0.0 | 0.00 | 0.32 | 0.32 | 77 | 1017.4 |
| 20260903035630 | 72 | 192 | 0.0 | 0.0 | 0.00 | 0.32 | 0.32 | 77 | 1017.6 |
| 20260903035327 | 72 | 192 | 0.0 | 0.0 | 0.00 | 0.32 | 0.32 | 77 | 1017.6 |
| 20260903035018 | 72 | 193 | 0.0 | 1.0 | 0.00 | 0.32 | 0.32 | 77 | 1017.6 |
| 20260903034708 | 72 | 138 | 0.0 | 0.0 | 0.00 | 0.32 | 0.32 | 77 | 1017.6 |
| 20260903034410 | 72 | 123 | 0.0 | 0.0 | 0.00 | 0.32 | 0.32 | 77 | 1017.6 |
| 20260903034112 | 72 | 76 | 0.0 | 0.0 | 0.00 | 0.32 | 0.32 | 77 | 1017.7 |
| 20260903033800 | 72 | 76 | 0.0 | 2.0 | 0.00 | 0.32 | 0.32 | 77 | 1017.7 |
| 20260903033453 | 72 | 59 | 0.0 | 1.0 | 0.00 | 0.32 | 0.32 | 77 | 1017.6 |
| 20260903033147 | 72 | 101 | 0.0 | 1.0 | 0.00 | 0.32 | 0.32 | 77 | 1017.5 |
| 20260903032851 | 72 | 205 | 0.0 | 1.0 | 0.00 | 0.32 | 0.32 | 77 | 1017.5 |
| 20260903032554 | 72 | 57 | 0.0 | 1.0 | 0.00 | 0.32 | 0.32 | 77 | 1017.4 |
| 20260903032255 | 72 | 236 | 0.0 | 0.0 | 0.00 | 0.34 | 0.32 | 77 | 1017.4 |
| 20260903031955 | 72 | 188 | 0.0 | 2.0 | 0.00 | 0.41 | 0.32 | 77 | 1017.4 |
| 20260903031232 | 72 | 51 | 0.0 | 0.0 | 0.00 | 0.52 | 0.32 | 77 | 1017.8 |
| 20260903030926 | 72 | 42 | 0.0 | 0.0 | 0.00 | 0.52 | 0.32 | 77 | 1017.8 |
| 20260903030615 | 72 | 42 | 0.0 | 0.0 | 0.00 | 0.52 | 0.32 | 77 | 1017.7 |
| 20260903025901 | 72 | 188 | 0.0 | 0.0 | 0.00 | 0.52 | 0.32 | 76 | 1017.9 |
| 20260903024702 | 72 | 150 | 0.0 | 0.0 | 0.00 | 0.52 | 0.32 | 76 | 1017.7 |
| 20260903024357 | 72 | 150 | 0.0 | 0.0 | 0.00 | 0.52 | 0.32 | 76 | 1017.8 |
| 20260903024044 | 72 | 124 | 0.0 | 0.0 | 0.00 | 0.52 | 0.32 | 76 | 1017.9 |
| 20260903023748 | 72 | 124 | 0.0 | 0.0 | 0.00 | 0.52 | 0.32 | 76 | 1017.9 |
| 20260903023445 | 72 | 71 | 0.0 | 0.0 | 0.00 | 0.52 | 0.32 | 76 | 1017.9 |
| 20260903023146 | 72 | 76 | 0.0 | 0.0 | 0.00 | 0.52 | 0.32 | 76 | 1017.7 |
| 20260903022431 | 72 | 96 | 0.0 | 0.0 | 0.00 | 0.52 | 0.32 | 76 | 1017.1 |
| 20260903022122 | 73 | 138 | 0.0 | 0.0 | 0.00 | 0.52 | 0.32 | 76 | 1017.1 |
| 20260903021826 | 73 | 174 | 0.0 | 2.0 | 0.00 | 0.52 | 0.32 | 76 | 1017.0 |
| 20260903021521 | 73 | 111 | 0.0 | 0.0 | 0.00 | 0.52 | 0.32 | 76 | 1016.9 |
| 20260903021210 | 73 | 190 | 0.0 | 0.0 | 0.00 | 0.52 | 0.32 | 76 | 1017.1 |
| 20260903020901 | 73 | 148 | 0.0 | 0.0 | 0.00 | 0.52 | 0.32 | 76 | 1017.2 |
| 20260903020547 | 73 | 71 | 0.0 | 0.0 | 0.00 | 0.52 | 0.32 | 76 | 1017.1 |
| 20260903020251 | 73 | 74 | 0.0 | 1.0 | 0.00 | 0.52 | 0.32 | 76 | 1017.1 |
| 20260903015527 | 73 | 319 | 0.0 | 0.0 | 0.00 | 0.52 | 0.32 | 76 | 1017.0 |
| 20260903015224 | 73 | 319 | 0.0 | 0.0 | 0.00 | 0.52 | 0.32 | 76 | 1017.1 |
| 20260903014915 | 73 | 319 | 0.0 | 0.0 | 0.00 | 0.52 | 0.32 | 76 | 1017.2 |
| 20260903014614 | 73 | 58 | 0.0 | 0.0 | 0.00 | 0.52 | 0.32 | 76 | 1017.2 |
| 20260903014308 | 73 | 58 | 0.0 | 1.0 | 0.00 | 0.52 | 0.32 | 76 | 1017.2 |
| 20260903014005 | 73 | 69 | 0.0 | 1.0 | 0.00 | 0.52 | 0.32 | 76 | 1017.3 |
| 20260903013706 | 73 | 190 | 0.0 | 0.0 | 0.00 | 0.52 | 0.32 | 76 | 1017.3 |
| 20260903013354 | 74 | 196 | 0.0 | 0.0 | 0.00 | 0.52 | 0.32 | 76 | 1017.4 |
| 20260903013050 | 74 | 196 | 0.0 | 0.0 | 0.00 | 0.52 | 0.32 | 76 | 1017.5 |
| 20260903012746 | 74 | 191 | 0.0 | 0.0 | 0.00 | 0.52 | 0.32 | 76 | 1017.5 |
| 20260903012451 | 74 | 191 | 0.0 | 3.0 | 0.00 | 0.52 | 0.32 | 76 | 1017.4 |
| 20260903012143 | 74 | 131 | 0.0 | 3.0 | 0.00 | 0.52 | 0.32 | 76 | 1017.5 |
| 20260903011830 | 74 | 86 | 0.0 | 3.0 | 0.00 | 0.52 | 0.32 | 76 | 1017.4 |
| 20260903011523 | 74 | 106 | 0.0 | 1.0 | 0.00 | 0.52 | 0.32 | 76 | 1017.3 |
| 20260903010335 | 74 | 88 | 1.0 | 3.0 | 0.00 | 0.52 | 0.32 | 76 | 1017.0 |
| 20260903005615 | 74 | 90 | 1.0 | 3.0 | 0.00 | 0.52 | 0.32 | 76 | 1017.1 |
| 20260903005313 | 74 | 86 | 0.0 | 2.0 | 0.00 | 0.52 | 0.32 | 76 | 1017.2 |
| 20260903005017 | 74 | 68 | 0.0 | 1.0 | 0.00 | 0.52 | 0.32 | 76 | 1017.1 |
| 20260903004704 | 74 | 83 | 0.0 | 0.0 | 0.00 | 0.52 | 0.32 | 76 | 1017.0 |
| 20260903004358 | 74 | 88 | 0.0 | 0.0 | 0.00 | 0.52 | 0.32 | 76 | 1017.1 |
| 20260903004052 | 74 | 71 | 0.0 | 3.0 | 0.00 | 0.52 | 0.32 | 76 | 1017.0 |
| 20260903003742 | 74 | 65 | 0.0 | 1.0 | 0.00 | 0.52 | 0.32 | 76 | 1017.1 |
| 20260903003442 | 74 | 80 | 0.0 | 0.0 | 0.00 | 0.52 | 0.32 | 76 | 1017.0 |
| 20260903003140 | 75 | 80 | 0.0 | 0.0 | 0.00 | 0.52 | 0.32 | 76 | 1017.2 |
| 20260903002843 | 75 | 80 | 0.0 | 0.0 | 0.00 | 0.52 | 0.32 | 76 | 1017.2 |
| 20260903002120 | 75 | 80 | 0.0 | 0.0 | 0.00 | 0.52 | 0.32 | 76 | 1017.1 |
| 20260903001807 | 75 | 115 | 0.0 | 0.0 | 0.00 | 0.52 | 0.32 | 76 | 1017.0 |
| 20260903001454 | 75 | 115 | 0.0 | 1.0 | 0.00 | 0.52 | 0.32 | 76 | 1017.1 |
| 20260903001142 | 75 | 77 | 0.0 | 1.0 | 0.00 | 0.52 | 0.32 | 75 | 1017.1 |
| 20260903000420 | 75 | 91 | 0.0 | 0.0 | 0.00 | 0.52 | 0.32 | 75 | 1017.1 |
| 20260902235650 | 75 | 111 | 0.0 | 0.0 | 0.00 | 0.52 | 0.32 | 75 | 1017.2 |
| 20260902235343 | 75 | 111 | 0.0 | 0.0 | 0.00 | 0.52 | 0.32 | 75 | 1017.2 |
| 20260902235038 | 75 | 111 | 0.0 | 0.0 | 0.00 | 0.52 | 0.32 | 75 | 1017.2 |
| 20260902234731 | 75 | 111 | 0.0 | 0.0 | 0.00 | 0.52 | 0.32 | 75 | 1017.2 |
| 20260902234423 | 75 | 111 | 0.0 | 0.0 | 0.00 | 0.52 | 0.32 | 75 | 1017.2 |
| 20260902234111 | 76 | 111 | 0.0 | 0.0 | 0.00 | 0.52 | 0.32 | 75 | 1017.3 |
| 20260902233812 | 76 | 111 | 0.0 | 0.0 | 0.00 | 0.52 | 0.32 | 75 | 1017.3 |
| 20260902233501 | 76 | 111 | 0.0 | 0.0 | 0.00 | 0.52 | 0.32 | 75 | 1017.2 |
| 20260902232747 | 76 | 111 | 0.0 | 0.0 | 0.00 | 0.52 | 0.32 | 75 | 1017.3 |
| 20260902232437 | 76 | 111 | 0.0 | 0.0 | 0.00 | 0.52 | 0.32 | 75 | 1017.2 |
| 20260902232125 | 76 | 111 | 0.0 | 0.0 | 0.00 | 0.52 | 0.32 | 75 | 1017.1 |
| 20260902231821 | 76 | 111 | 0.0 | 0.0 | 0.00 | 0.52 | 0.32 | 75 | 1017.1 |
| 20260902231519 | 76 | 98 | 0.0 | 0.0 | 0.00 | 0.52 | 0.32 | 75 | 1017.2 |
| 20260902231206 | 76 | 70 | 0.0 | 3.0 | 0.00 | 0.52 | 0.32 | 75 | 1017.0 |
| 20260902230431 | 76 | 96 | 0.0 | 0.0 | 0.00 | 0.52 | 0.32 | 75 | 1017.1 |
| 20260902230123 | 76 | 96 | 0.0 | 1.0 | 0.00 | 0.52 | 0.32 | 75 | 1017.2 |
| 20260902225815 | 76 | 88 | 0.0 | 1.0 | 0.00 | 0.52 | 0.32 | 75 | 1017.2 |
| 20260902225509 | 76 | 89 | 0.0 | 0.0 | 0.00 | 0.52 | 0.32 | 75 | 1017.1 |
| 20260902225204 | 76 | 94 | 0.0 | 0.0 | 0.00 | 0.52 | 0.32 | 75 | 1017.1 |
| 20260902224903 | 76 | 90 | 0.0 | 0.0 | 0.00 | 0.52 | 0.32 | 75 | 1017.0 |
| 20260902224136 | 77 | 84 | 0.0 | 2.0 | 0.00 | 0.52 | 0.32 | 74 | 1016.9 |
| 20260902223826 | 77 | 84 | 0.0 | 2.0 | 0.00 | 0.52 | 0.32 | 74 | 1016.8 |
| 20260902223520 | 77 | 88 | 0.0 | 2.0 | 0.00 | 0.52 | 0.32 | 74 | 1017.0 |
| 20260902223207 | 77 | 81 | 0.0 | 0.0 | 0.00 | 0.52 | 0.32 | 74 | 1017.2 |
| 20260902222859 | 77 | 81 | 0.0 | 3.0 | 0.00 | 0.52 | 0.32 | 74 | 1017.1 |
| 20260902222557 | 77 | 69 | 0.0 | 3.0 | 0.00 | 0.52 | 0.32 | 74 | 1017.1 |
| 20260902222245 | 77 | 83 | 0.0 | 0.0 | 0.00 | 0.52 | 0.32 | 74 | 1017.2 |
| 20260902221937 | 77 | 83 | 0.0 | 1.0 | 0.00 | 0.52 | 0.32 | 74 | 1017.0 |
| 20260902221210 | 77 | 87 | 0.0 | 1.0 | 0.00 | 0.52 | 0.32 | 74 | 1017.0 |
| 20260902220906 | 77 | 96 | 0.0 | 0.0 | 0.00 | 0.52 | 0.32 | 74 | 1016.8 |
| 20260902220610 | 78 | 84 | 0.0 | 1.0 | 0.00 | 0.52 | 0.32 | 74 | 1016.9 |
| 20260902220312 | 78 | 317 | 0.0 | 0.0 | 0.00 | 0.52 | 0.32 | 74 | 1017.0 |
| 20260902220013 | 78 | 90 | 0.0 | 0.0 | 0.00 | 0.52 | 0.32 | 74 | 1017.2 |
| 20260902215717 | 78 | 89 | 0.0 | 0.0 | 0.00 | 0.52 | 0.32 | 74 | 1017.0 |
| 20260902214951 | 78 | 45 | 1.0 | 2.0 | 0.00 | 0.52 | 0.32 | 73 | 1017.2 |
| 20260902214652 | 78 | 68 | 1.0 | 3.0 | 0.00 | 0.52 | 0.32 | 73 | 1017.3 |
| 20260902214348 | 78 | 71 | 1.0 | 3.0 | 0.00 | 0.52 | 0.32 | 73 | 1017.2 |
| 20260902214047 | 78 | 69 | 1.0 | 3.0 | 0.00 | 0.52 | 0.32 | 73 | 1017.2 |
| 20260902213307 | 78 | 93 | 0.0 | 3.0 | 0.00 | 0.52 | 0.32 | 74 | 1017.4 |
| 20260902213003 | 78 | 45 | 0.0 | 1.0 | 0.00 | 0.52 | 0.32 | 74 | 1017.3 |
| 20260902212651 | 78 | 76 | 0.0 | 1.0 | 0.00 | 0.52 | 0.32 | 74 | 1017.4 |
| 20260902211936 | 78 | 284 | 0.0 | 2.0 | 0.00 | 0.52 | 0.32 | 74 | 1017.5 |
| 20260902211639 | 78 | 289 | 0.0 | 3.0 | 0.00 | 0.52 | 0.32 | 74 | 1017.4 |
| 20260902211325 | 77 | 296 | 0.0 | 3.0 | 0.00 | 0.52 | 0.32 | 74 | 1017.4 |
| 20260902211025 | 77 | 63 | 0.0 | 3.0 | 0.00 | 0.52 | 0.32 | 74 | 1017.4 |
| 20260902210715 | 77 | 86 | 1.0 | 3.0 | 0.00 | 0.52 | 0.32 | 74 | 1017.4 |
| 20260902210410 | 77 | 355 | 0.0 | 3.0 | 0.00 | 0.52 | 0.32 | 74 | 1017.5 |
| 20260902210103 | 77 | 9 | 0.0 | 3.0 | 0.00 | 0.52 | 0.32 | 74 | 1017.5 |
| 20260902205759 | 77 | 81 | 0.0 | 1.0 | 0.00 | 0.52 | 0.32 | 74 | 1017.5 |
| 20260902205500 | 77 | 111 | 0.0 | 1.0 | 0.00 | 0.52 | 0.32 | 75 | 1017.7 |
| 20260902205201 | 77 | 54 | 0.0 | 0.0 | 0.00 | 0.52 | 0.32 | 74 | 1017.8 |
| 20260902204439 | 77 | 180 | 0.0 | 2.0 | 0.00 | 0.52 | 0.32 | 74 | 1017.9 |
| 20260902204128 | 77 | 86 | 0.0 | 2.0 | 0.00 | 0.52 | 0.32 | 75 | 1018.0 |
| 20260902203817 | 77 | 238 | 0.0 | 1.0 | 0.00 | 0.52 | 0.32 | 75 | 1018.0 |
| 20260902203509 | 77 | 254 | 0.0 | 0.0 | 0.00 | 0.52 | 0.32 | 74 | 1018.0 |
| 20260902203211 | 77 | 310 | 1.0 | 4.0 | 0.00 | 0.52 | 0.32 | 75 | 1018.0 |
| 20260902202449 | 77 | 180 | 1.0 | 4.0 | 0.00 | 0.52 | 0.32 | 75 | 1017.9 |
| 20260902202140 | 77 | 30 | 1.0 | 4.0 | 0.00 | 0.52 | 0.32 | 74 | 1017.8 |
| 20260902201837 | 77 | 198 | 1.0 | 4.0 | 0.00 | 0.52 | 0.32 | 75 | 1017.8 |
| 20260902201529 | 77 | 137 | 1.0 | 4.0 | 0.00 | 0.52 | 0.32 | 74 | 1017.7 |
| 20260902201215 | 77 | 125 | 1.0 | 4.0 | 0.00 | 0.52 | 0.32 | 75 | 1017.7 |
| 20260902200904 | 77 | 60 | 1.0 | 3.0 | 0.00 | 0.52 | 0.32 | 75 | 1017.7 |
| 20260902200557 | 77 | 225 | 1.0 | 3.0 | 0.00 | 0.52 | 0.32 | 76 | 1017.7 |
| 20260902200255 | 76 | 242 | 0.0 | 3.0 | 0.00 | 0.52 | 0.32 | 76 | 1017.8 |
| 20260902195523 | 76 | 77 | 0.0 | 2.0 | 0.00 | 0.52 | 0.32 | 75 | 1017.9 |
| 20260902195210 | 76 | 98 | 0.0 | 4.0 | 0.00 | 0.52 | 0.32 | 75 | 1017.9 |
| 20260902194907 | 76 | 98 | 0.0 | 2.0 | 0.00 | 0.52 | 0.32 | 76 | 1018.0 |
| 20260902194137 | 76 | 56 | 0.0 | 5.0 | 0.00 | 0.52 | 0.32 | 76 | 1018.1 |
| 20260902193827 | 75 | 121 | 0.0 | 5.0 | 0.00 | 0.52 | 0.32 | 76 | 1018.2 |
| 20260902193518 | 75 | 173 | 0.0 | 5.0 | 0.00 | 0.52 | 0.32 | 76 | 1018.2 |
| 20260902192754 | 75 | 42 | 1.0 | 5.0 | 0.00 | 0.52 | 0.32 | 76 | 1018.3 |
| 20260902192456 | 75 | 176 | 1.0 | 5.0 | 0.00 | 0.52 | 0.32 | 77 | 1018.4 |
| 20260902192143 | 75 | 236 | 1.0 | 3.0 | 0.00 | 0.52 | 0.32 | 77 | 1018.5 |
| 20260902191843 | 75 | 326 | 1.0 | 3.0 | 0.00 | 0.52 | 0.32 | 77 | 1018.4 |
| 20260902191539 | 75 | 252 | 0.0 | 3.0 | 0.00 | 0.52 | 0.32 | 78 | 1018.6 |
| 20260902191238 | 75 | 334 | 0.0 | 2.0 | 0.00 | 0.52 | 0.32 | 78 | 1018.5 |
| 20260902190926 | 74 | 177 | 0.0 | 2.0 | 0.00 | 0.52 | 0.32 | 78 | 1018.5 |
| 20260902190623 | 74 | 248 | 0.0 | 2.0 | 0.00 | 0.52 | 0.32 | 78 | 1018.5 |
| 20260902190319 | 74 | 244 | 0.0 | 1.0 | 0.00 | 0.52 | 0.32 | 77 | 1018.5 |
| 20260902190016 | 74 | 284 | 0.0 | 3.0 | 0.00 | 0.52 | 0.32 | 78 | 1018.4 |
| 20260902185301 | 74 | 298 | 0.0 | 5.0 | 0.00 | 0.52 | 0.32 | 78 | 1018.3 |
| 20260902184955 | 74 | 23 | 1.0 | 5.0 | 0.00 | 0.52 | 0.32 | 78 | 1018.3 |
| 20260902184235 | 73 | 261 | 0.0 | 5.0 | 0.00 | 0.52 | 0.32 | 79 | 1018.2 |
| 20260902183936 | 73 | 296 | 0.0 | 5.0 | 0.00 | 0.52 | 0.32 | 79 | 1018.1 |
| 20260902183631 | 73 | 246 | 1.0 | 5.0 | 0.00 | 0.52 | 0.32 | 79 | 1018.1 |
| 20260902183331 | 73 | 0 | 0.0 | 5.0 | 0.00 | 0.52 | 0.32 | 78 | 1018.1 |
| 20260902183030 | 72 | 242 | 0.0 | 3.0 | 0.00 | 0.52 | 0.32 | 78 | 1018.2 |
| 20260902182311 | 72 | 283 | 0.0 | 0.0 | 0.00 | 0.52 | 0.32 | 79 | 1018.2 |
| 20260902182009 | 72 | 279 | 0.0 | 0.0 | 0.00 | 0.52 | 0.32 | 78 | 1018.3 |
| 20260902181239 | 72 | 275 | 0.0 | 0.0 | 0.00 | 0.52 | 0.32 | 78 | 1018.5 |
| 20260902180518 | 71 | 292 | 0.0 | 0.0 | 0.00 | 0.50 | 0.31 | 78 | 1018.7 |
| 20260902180218 | 71 | 292 | 0.0 | 0.0 | 0.00 | 0.50 | 0.31 | 78 | 1018.7 |
| 20260902175915 | 71 | 229 | 0.0 | 0.0 | 0.00 | 0.50 | 0.31 | 78 | 1018.7 |
| 20260902175616 | 71 | 100 | 0.0 | 0.0 | 0.00 | 0.50 | 0.31 | 78 | 1018.7 |
| 20260902175319 | 71 | 91 | 0.0 | 0.0 | 0.00 | 0.50 | 0.31 | 78 | 1018.7 |
| 20260902175016 | 70 | 96 | 0.0 | 0.0 | 0.00 | 0.50 | 0.31 | 78 | 1018.8 |
| 20260902174719 | 70 | 97 | 0.0 | 0.0 | 0.00 | 0.50 | 0.31 | 78 | 1018.9 |
| 20260902174406 | 70 | 69 | 0.0 | 0.0 | 0.04 | 0.50 | 0.31 | 78 | 1019.0 |
| 20260902174106 | 70 | 73 | 0.0 | 0.0 | 0.04 | 0.50 | 0.31 | 78 | 1019.1 |
| 20260902173752 | 70 | 88 | 0.0 | 0.0 | 0.05 | 0.50 | 0.31 | 78 | 1019.2 |
| 20260902173040 | 70 | 317 | 0.0 | 0.0 | 0.05 | 0.50 | 0.31 | 78 | 1019.2 |
| 20260902172741 | 70 | 303 | 0.0 | 0.0 | 0.05 | 0.49 | 0.31 | 78 | 1019.1 |
| 20260902172010 | 70 | 172 | 0.0 | 0.0 | 0.05 | 0.49 | 0.30 | 78 | 1018.8 |
| 20260902171704 | 70 | 99 | 0.0 | 0.0 | 0.05 | 0.49 | 0.30 | 78 | 1019.3 |
| 20260902171355 | 70 | 96 | 0.0 | 0.0 | 0.05 | 0.49 | 0.28 | 78 | 1019.1 |
| 20260902171054 | 70 | 96 | 0.0 | 0.0 | 0.06 | 0.49 | 0.28 | 78 | 1019.3 |
| 20260902170753 | 70 | 61 | 0.0 | 0.0 | 0.06 | 0.49 | 0.28 | 78 | 1019.5 |
| 20260902170449 | 70 | 62 | 0.0 | 0.0 | 0.06 | 0.49 | 0.28 | 78 | 1019.6 |
| 20260902170146 | 70 | 61 | 0.0 | 0.0 | 0.06 | 0.47 | 0.28 | 78 | 1019.6 |
| 20260902165841 | 70 | 53 | 0.0 | 0.0 | 0.06 | 0.47 | 0.27 | 78 | 1019.8 |
| 20260902165122 | 70 | 130 | 0.0 | 0.0 | 0.06 | 0.46 | 0.27 | 78 | 1019.9 |
| 20260902164822 | 70 | 130 | 0.0 | 0.0 | 0.09 | 0.46 | 0.27 | 78 | 1019.8 |
| 20260902164518 | 70 | 143 | 0.0 | 0.0 | 0.10 | 0.46 | 0.27 | 78 | 1019.8 |
| 20260902163345 | 70 | 167 | 0.0 | 0.0 | 0.10 | 0.44 | 0.25 | 78 | 1020.1 |
| 20260902163040 | 70 | 198 | 0.0 | 0.0 | 0.10 | 0.44 | 0.25 | 77 | 1020.3 |
| 20260902161900 | 70 | 111 | 0.0 | 0.0 | 0.00 | 0.42 | 0.23 | 77 | 1020.7 |
| 20260902161132 | 70 | 150 | 0.0 | 0.0 | 0.00 | 0.41 | 0.21 | 77 | 1021.0 |
| 20260902160834 | 70 | 159 | 0.0 | 0.0 | 0.00 | 0.41 | 0.21 | 77 | 1021.0 |
| 20260902160527 | 70 | 132 | 0.0 | 0.0 | 0.00 | 0.41 | 0.21 | 77 | 1021.2 |
| 20260902160214 | 70 | 125 | 0.0 | 0.0 | 0.04 | 0.41 | 0.21 | 77 | 1020.9 |
| 20260902155900 | 71 | 136 | 0.0 | 0.0 | 0.05 | 0.41 | 0.21 | 77 | 1020.8 |
| 20260902155558 | 71 | 195 | 0.0 | 0.0 | 0.06 | 0.41 | 0.21 | 76 | 1020.8 |
| 20260902155250 | 71 | 178 | 0.0 | 0.0 | 0.08 | 0.41 | 0.21 | 77 | 1020.9 |
| 20260902154515 | 71 | 125 | 0.0 | 0.0 | 0.10 | 0.41 | 0.21 | 76 | 1020.6 |
| 20260902154215 | 72 | 187 | 0.0 | 0.0 | 0.24 | 0.41 | 0.21 | 76 | 1020.7 |
| 20260902153902 | 72 | 123 | 2.0 | 0.0 | 0.37 | 0.39 | 0.20 | 76 | 1020.6 |
| 20260902153559 | 72 | 170 | 3.0 | 17.0 | 0.45 | 0.36 | 0.18 | 76 | 1020.7 |
| 20260902153249 | 73 | 192 | 4.0 | 17.0 | 1.48 | 0.30 | 0.13 | 76 | 1021.1 |
| 20260902152950 | 74 | 65 | 3.0 | 17.0 | 1.74 | 0.22 | 0.06 | 76 | 1022.1 |
| 20260902152652 | 74 | 239 | 1.0 | 10.0 | 0.17 | 0.22 | 0.03 | 76 | 1020.4 |
| 20260902152355 | 75 | 0 | 1.0 | 5.0 | 0.77 | 0.20 | 0.03 | 76 | 1020.0 |
| 20260902152051 | 75 | 49 | 0.0 | 4.0 | 0.00 | 0.19 | 0.00 | 76 | 1019.8 |
| 20260902151328 | 75 | 54 | 0.0 | 4.0 | 0.00 | 0.19 | 0.00 | 76 | 1019.3 |
| 20260902150609 | 75 | 63 | 1.0 | 4.0 | 0.00 | 0.19 | 0.00 | 76 | 1019.1 |
| 20260902150304 | 75 | 71 | 0.0 | 4.0 | 0.00 | 0.19 | 0.00 | 76 | 1019.0 |
| 20260902145957 | 75 | 238 | 1.0 | 8.0 | 0.00 | 0.19 | 0.00 | 77 | 1018.8 |
| 20260902145647 | 75 | 0 | 1.0 | 8.0 | 0.00 | 0.19 | 0.00 | 77 | 1018.7 |
| 20260902145335 | 75 | 57 | 1.0 | 8.0 | 0.00 | 0.19 | 0.00 | 77 | 1018.6 |
| 20260902145024 | 74 | 109 | 2.0 | 9.0 | 0.00 | 0.19 | 0.00 | 77 | 1018.6 |
| 20260902144711 | 74 | 82 | 2.0 | 9.0 | 0.00 | 0.19 | 0.00 | 77 | 1018.7 |
| 20260902144409 | 74 | 32 | 2.0 | 9.0 | 0.00 | 0.19 | 0.00 | 77 | 1018.8 |
| 20260902144108 | 74 | 60 | 3.0 | 9.0 | 0.00 | 0.19 | 0.00 | 77 | 1018.8 |
| 20260902143755 | 74 | 76 | 3.0 | 9.0 | 0.00 | 0.19 | 0.00 | 77 | 1018.7 |
| 20260902143446 | 74 | 61 | 2.0 | 9.0 | 0.00 | 0.19 | 0.00 | 77 | 1018.7 |
| 20260902143148 | 74 | 57 | 2.0 | 9.0 | 0.00 | 0.19 | 0.00 | 77 | 1018.8 |
| 20260902142847 | 74 | 65 | 2.0 | 9.0 | 0.00 | 0.19 | 0.00 | 77 | 1018.7 |
| 20260902142537 | 74 | 113 | 2.0 | 9.0 | 0.00 | 0.19 | 0.00 | 77 | 1018.8 |
| 20260902142231 | 74 | 89 | 2.0 | 9.0 | 0.00 | 0.19 | 0.00 | 77 | 1018.8 |
| 20260902141924 | 74 | 67 | 2.0 | 9.0 | 0.00 | 0.19 | 0.00 | 77 | 1018.8 |
| 20260902141209 | 74 | 88 | 2.0 | 7.0 | 0.00 | 0.19 | 0.00 | 77 | 1018.9 |
| 20260902140858 | 73 | 102 | 2.0 | 8.0 | 0.00 | 0.19 | 0.00 | 77 | 1018.8 |
| 20260902140140 | 73 | 18 | 3.0 | 8.0 | 0.00 | 0.19 | 0.00 | 77 | 1019.0 |
| 20260902135843 | 73 | 71 | 3.0 | 9.0 | 0.00 | 0.19 | 0.00 | 78 | 1018.9 |
| 20260902135543 | 73 | 17 | 3.0 | 9.0 | 0.00 | 0.19 | 0.00 | 77 | 1018.8 |
| 20260902135232 | 73 | 66 | 3.0 | 9.0 | 0.00 | 0.19 | 0.00 | 78 | 1018.9 |
| 20260902134924 | 73 | 67 | 3.0 | 9.0 | 0.00 | 0.19 | 0.00 | 78 | 1018.9 |
| 20260902134154 | 73 | 150 | 3.0 | 9.0 | 0.00 | 0.19 | 0.00 | 78 | 1018.6 |
| 20260902133430 | 73 | 98 | 0.0 | 5.0 | 0.00 | 0.19 | 0.00 | 78 | 1018.8 |
| 20260902133131 | 73 | 108 | 0.0 | 5.0 | 0.00 | 0.19 | 0.00 | 78 | 1018.7 |
| 20260902132826 | 73 | 200 | 0.0 | 5.0 | 0.00 | 0.19 | 0.00 | 78 | 1018.8 |
| 20260902132523 | 72 | 86 | 0.0 | 5.0 | 0.00 | 0.19 | 0.00 | 78 | 1018.9 |
| 20260902132213 | 72 | 95 | 0.0 | 5.0 | 0.00 | 0.19 | 0.00 | 78 | 1018.9 |
| 20260902131906 | 72 | 80 | 0.0 | 4.0 | 0.00 | 0.19 | 0.00 | 79 | 1018.9 |
| 20260902131606 | 72 | 131 | 1.0 | 6.0 | 0.00 | 0.19 | 0.00 | 79 | 1019.0 |
| 20260902131300 | 72 | 65 | 1.0 | 6.0 | 0.00 | 0.19 | 0.00 | 78 | 1019.1 |
| 20260902130116 | 71 | 63 | 1.0 | 6.0 | 0.00 | 0.19 | 0.00 | 78 | 1018.9 |
| 20260902125815 | 71 | 98 | 2.0 | 6.0 | 0.00 | 0.19 | 0.00 | 78 | 1018.9 |
| 20260902125044 | 72 | 55 | 1.0 | 5.0 | 0.00 | 0.19 | 0.00 | 78 | 1018.7 |
| 20260902124739 | 72 | 68 | 1.0 | 4.0 | 0.00 | 0.19 | 0.00 | 78 | 1018.6 |
| 20260902124432 | 71 | 87 | 1.0 | 4.0 | 0.00 | 0.19 | 0.00 | 78 | 1018.6 |
| 20260902124125 | 71 | 86 | 1.0 | 4.0 | 0.00 | 0.19 | 0.00 | 78 | 1018.5 |
| 20260902123813 | 71 | 64 | 1.0 | 4.0 | 0.00 | 0.19 | 0.00 | 78 | 1018.6 |
| 20260902123052 | 71 | 101 | 0.0 | 3.0 | 0.00 | 0.19 | 0.00 | 78 | 1018.4 |
| 20260902122747 | 71 | 51 | 0.0 | 3.0 | 0.00 | 0.19 | 0.00 | 78 | 1018.4 |
| 20260902122449 | 71 | 101 | 0.0 | 3.0 | 0.00 | 0.19 | 0.00 | 78 | 1018.4 |
| 20260902122144 | 71 | 40 | 0.0 | 3.0 | 0.00 | 0.19 | 0.00 | 78 | 1018.4 |
| 20260902121841 | 71 | 73 | 0.0 | 3.0 | 0.00 | 0.19 | 0.00 | 78 | 1018.2 |
| 20260902121530 | 71 | 54 | 0.0 | 3.0 | 0.00 | 0.19 | 0.00 | 78 | 1018.2 |
| 20260902121217 | 71 | 104 | 0.0 | 3.0 | 0.00 | 0.19 | 0.00 | 78 | 1018.2 |
| 20260902120910 | 71 | 67 | 0.0 | 0.0 | 0.00 | 0.19 | 0.00 | 78 | 1018.3 |
| 20260902120613 | 71 | 100 | 0.0 | 1.0 | 0.00 | 0.19 | 0.00 | 79 | 1018.3 |
| 20260902120306 | 71 | 126 | 0.0 | 1.0 | 0.00 | 0.19 | 0.00 | 78 | 1018.3 |
| 20260902120008 | 71 | 40 | 1.0 | 2.0 | 0.00 | 0.19 | 0.00 | 78 | 1018.4 |
| 20260902115236 | 71 | 67 | 0.0 | 2.0 | 0.00 | 0.19 | 0.00 | 79 | 1018.2 |
| 20260902114934 | 71 | 96 | 0.0 | 2.0 | 0.00 | 0.19 | 0.00 | 79 | 1018.2 |
| 20260902114154 | 70 | 80 | 1.0 | 3.0 | 0.00 | 0.19 | 0.00 | 78 | 1018.2 |
| 20260902113855 | 70 | 69 | 1.0 | 3.0 | 0.00 | 0.19 | 0.00 | 78 | 1018.1 |
| 20260902113559 | 70 | 82 | 0.0 | 3.0 | 0.00 | 0.19 | 0.00 | 78 | 1018.0 |
| 20260902113249 | 70 | 103 | 0.0 | 3.0 | 0.00 | 0.19 | 0.00 | 78 | 1018.0 |
| 20260902112950 | 69 | 67 | 0.0 | 0.0 | 0.00 | 0.19 | 0.00 | 78 | 1018.0 |
| 20260902112645 | 69 | 78 | 0.0 | 2.0 | 0.00 | 0.19 | 0.00 | 78 | 1018.0 |
| 20260902112337 | 69 | 97 | 0.0 | 2.0 | 0.00 | 0.19 | 0.00 | 78 | 1018.1 |
| 20260902112040 | 69 | 101 | 0.0 | 2.0 | 0.00 | 0.19 | 0.00 | 78 | 1018.1 |
| 20260902111731 | 69 | 69 | 0.0 | 0.0 | 0.00 | 0.19 | 0.00 | 78 | 1018.2 |
| 20260902111420 | 69 | 60 | 0.0 | 0.0 | 0.00 | 0.19 | 0.00 | 77 | 1018.2 |
| 20260902111109 | 69 | 60 | 0.0 | 0.0 | 0.00 | 0.19 | 0.00 | 77 | 1018.1 |
| 20260902110345 | 69 | 65 | 0.0 | 0.0 | 0.00 | 0.19 | 0.00 | 77 | 1018.0 |
| 20260902105623 | 69 | 78 | 0.0 | 1.0 | 0.00 | 0.19 | 0.00 | 77 | 1018.0 |
| 20260902105320 | 69 | 76 | 0.0 | 1.0 | 0.00 | 0.19 | 0.00 | 77 | 1018.0 |
| 20260902105016 | 69 | 106 | 0.0 | 0.0 | 0.00 | 0.19 | 0.00 | 77 | 1018.0 |
| 20260902104251 | 69 | 94 | 0.0 | 1.0 | 0.00 | 0.19 | 0.00 | 77 | 1018.1 |
| 20260902103948 | 69 | 74 | 0.0 | 0.0 | 0.00 | 0.19 | 0.00 | 77 | 1018.2 |
| 20260902103643 | 69 | 74 | 0.0 | 0.0 | 0.00 | 0.19 | 0.00 | 77 | 1018.3 |
| 20260902102933 | 69 | 74 | 0.0 | 0.0 | 0.00 | 0.19 | 0.00 | 77 | 1018.3 |
| 20260902102635 | 69 | 74 | 0.0 | 0.0 | 0.00 | 0.19 | 0.00 | 77 | 1018.4 |
| 20260902102323 | 69 | 74 | 0.0 | 0.0 | 0.00 | 0.19 | 0.00 | 77 | 1018.3 |
| 20260902102013 | 69 | 74 | 0.0 | 0.0 | 0.00 | 0.19 | 0.00 | 77 | 1018.3 |
| 20260902101249 | 69 | 74 | 0.0 | 0.0 | 0.00 | 0.19 | 0.00 | 77 | 1018.3 |
| 20260902100941 | 69 | 74 | 0.0 | 0.0 | 0.00 | 0.19 | 0.00 | 77 | 1018.3 |
| 20260902100633 | 69 | 74 | 0.0 | 0.0 | 0.00 | 0.19 | 0.00 | 77 | 1018.2 |
| 20260902100337 | 69 | 74 | 0.0 | 0.0 | 0.00 | 0.19 | 0.00 | 77 | 1018.2 |
| 20260902100034 | 69 | 74 | 0.0 | 0.0 | 0.00 | 0.19 | 0.00 | 77 | 1018.2 |
| 20260902095727 | 69 | 74 | 0.0 | 2.0 | 0.00 | 0.19 | 0.00 | 77 | 1018.2 |
| 20260902095427 | 69 | 73 | 0.0 | 2.0 | 0.00 | 0.19 | 0.00 | 77 | 1018.2 |
| 20260902095123 | 69 | 74 | 0.0 | 2.0 | 0.00 | 0.19 | 0.00 | 77 | 1018.2 |
| 20260902094822 | 69 | 74 | 0.0 | 2.0 | 0.00 | 0.19 | 0.00 | 77 | 1018.2 |
| 20260902094511 | 69 | 109 | 0.0 | 0.0 | 0.00 | 0.19 | 0.00 | 77 | 1018.0 |
| 20260902093751 | 69 | 141 | 0.0 | 0.0 | 0.00 | 0.19 | 0.00 | 77 | 1018.1 |
| 20260902093454 | 69 | 165 | 0.0 | 0.0 | 0.00 | 0.19 | 0.00 | 77 | 1018.1 |
| 20260902093158 | 69 | 165 | 0.0 | 0.0 | 0.00 | 0.19 | 0.00 | 77 | 1018.2 |
| 20260902092852 | 69 | 165 | 0.0 | 0.0 | 0.00 | 0.19 | 0.00 | 77 | 1018.3 |
| 20260902092543 | 69 | 165 | 0.0 | 0.0 | 0.00 | 0.19 | 0.00 | 77 | 1018.2 |
| 20260902092232 | 69 | 165 | 0.0 | 0.0 | 0.00 | 0.19 | 0.00 | 77 | 1018.1 |
| 20260902091934 | 70 | 165 | 0.0 | 0.0 | 0.00 | 0.19 | 0.00 | 77 | 1018.3 |
| 20260902091622 | 70 | 165 | 0.0 | 0.0 | 0.00 | 0.19 | 0.00 | 77 | 1018.1 |
| 20260902090900 | 70 | 165 | 0.0 | 0.0 | 0.00 | 0.19 | 0.00 | 77 | 1018.0 |
| 20260902090556 | 70 | 165 | 0.0 | 0.0 | 0.00 | 0.19 | 0.00 | 77 | 1018.0 |
| 20260902090256 | 70 | 165 | 0.0 | 0.0 | 0.00 | 0.19 | 0.00 | 77 | 1017.9 |
| 20260902085946 | 70 | 165 | 0.0 | 0.0 | 0.00 | 0.19 | 0.00 | 77 | 1017.9 |
| 20260902085635 | 70 | 165 | 0.0 | 1.0 | 0.00 | 0.19 | 0.00 | 77 | 1017.8 |
| 20260902085332 | 70 | 163 | 0.0 | 1.0 | 0.00 | 0.19 | 0.00 | 76 | 1017.8 |
| 20260902085025 | 70 | 84 | 0.0 | 0.0 | 0.00 | 0.19 | 0.00 | 76 | 1017.8 |
| 20260902084724 | 70 | 80 | 0.0 | 1.0 | 0.00 | 0.19 | 0.00 | 76 | 1017.8 |
| 20260902083951 | 70 | 234 | 0.0 | 0.0 | 0.00 | 0.19 | 0.00 | 76 | 1017.6 |
| 20260902083645 | 70 | 233 | 0.0 | 0.0 | 0.00 | 0.19 | 0.00 | 76 | 1017.7 |
| 20260902083342 | 70 | 233 | 0.0 | 0.0 | 0.00 | 0.19 | 0.00 | 76 | 1017.8 |
| 20260902083035 | 70 | 234 | 0.0 | 0.0 | 0.00 | 0.19 | 0.00 | 76 | 1017.7 |
| 20260902082735 | 70 | 234 | 0.0 | 0.0 | 0.00 | 0.19 | 0.00 | 76 | 1017.7 |
| 20260902082009 | 70 | 233 | 0.0 | 0.0 | 0.00 | 0.19 | 0.00 | 76 | 1017.6 |
| 20260902081710 | 70 | 234 | 0.0 | 0.0 | 0.00 | 0.19 | 0.00 | 76 | 1017.5 |
| 20260902081359 | 70 | 234 | 0.0 | 0.0 | 0.00 | 0.19 | 0.00 | 76 | 1017.5 |
| 20260902081052 | 70 | 234 | 0.0 | 0.0 | 0.00 | 0.19 | 0.00 | 76 | 1017.4 |
| 20260902080754 | 70 | 234 | 0.0 | 0.0 | 0.00 | 0.19 | 0.00 | 76 | 1017.4 |
| 20260902080448 | 70 | 234 | 0.0 | 0.0 | 0.00 | 0.19 | 0.00 | 76 | 1017.4 |
| 20260902080138 | 70 | 234 | 0.0 | 0.0 | 0.00 | 0.19 | 0.00 | 76 | 1017.4 |
| 20260902075413 | 70 | 246 | 0.0 | 0.0 | 0.00 | 0.19 | 0.00 | 75 | 1017.4 |
| 20260902075116 | 70 | 251 | 0.0 | 0.0 | 0.00 | 0.19 | 0.00 | 75 | 1017.5 |
| 20260902074813 | 70 | 248 | 0.0 | 0.0 | 0.00 | 0.19 | 0.00 | 75 | 1017.5 |
| 20260902074516 | 70 | 194 | 0.0 | 0.0 | 0.00 | 0.19 | 0.00 | 75 | 1017.4 |
| 20260902074215 | 70 | 194 | 0.0 | 0.0 | 0.00 | 0.19 | 0.00 | 75 | 1017.4 |
| 20260902073915 | 70 | 194 | 0.0 | 0.0 | 0.00 | 0.19 | 0.00 | 75 | 1017.4 |
| 20260902073606 | 70 | 194 | 0.0 | 0.0 | 0.00 | 0.19 | 0.00 | 75 | 1017.3 |
| 20260902073257 | 70 | 194 | 0.0 | 1.0 | 0.00 | 0.19 | 0.00 | 75 | 1017.3 |
| 20260902072953 | 70 | 194 | 0.0 | 1.0 | 0.00 | 0.19 | 0.00 | 75 | 1017.4 |
| 20260902072645 | 70 | 194 | 0.0 | 1.0 | 0.00 | 0.19 | 0.00 | 75 | 1017.4 |
| 20260902072346 | 70 | 196 | 0.0 | 1.0 | 0.00 | 0.19 | 0.00 | 75 | 1017.4 |
| 20260902071203 | 70 | 119 | 0.0 | 0.0 | 0.00 | 0.19 | 0.00 | 75 | 1017.3 |
| 20260902070856 | 71 | 119 | 0.0 | 0.0 | 0.00 | 0.19 | 0.00 | 75 | 1017.4 |
| 20260902070135 | 70 | 119 | 0.0 | 0.0 | 0.00 | 0.19 | 0.00 | 75 | 1017.5 |
| 20260902065822 | 70 | 119 | 0.0 | 0.0 | 0.00 | 0.19 | 0.00 | 74 | 1017.5 |
| 20260902065510 | 71 | 119 | 0.0 | 1.0 | 0.00 | 0.19 | 0.00 | 74 | 1017.5 |
| 20260902064756 | 71 | 120 | 0.0 | 0.0 | 0.00 | 0.19 | 0.00 | 74 | 1017.4 |
| 20260902064444 | 71 | 119 | 0.0 | 0.0 | 0.00 | 0.19 | 0.00 | 74 | 1017.3 |
| 20260902064141 | 71 | 119 | 0.0 | 0.0 | 0.00 | 0.19 | 0.00 | 74 | 1017.4 |
| 20260902063837 | 71 | 119 | 0.0 | 0.0 | 0.00 | 0.19 | 0.00 | 74 | 1017.4 |
| 20260902063536 | 71 | 119 | 0.0 | 0.0 | 0.00 | 0.19 | 0.00 | 74 | 1017.3 |
| 20260902063230 | 71 | 119 | 0.0 | 1.0 | 0.00 | 0.19 | 0.00 | 74 | 1017.4 |
| 20260902062932 | 71 | 150 | 0.0 | 0.0 | 0.00 | 0.19 | 0.00 | 73 | 1017.5 |
| 20260902062630 | 71 | 244 | 0.0 | 0.0 | 0.00 | 0.19 | 0.00 | 73 | 1017.3 |
| 20260902062332 | 71 | 244 | 0.0 | 0.0 | 0.00 | 0.19 | 0.00 | 73 | 1017.4 |
| 20260902062021 | 71 | 244 | 0.0 | 0.0 | 0.00 | 0.19 | 0.00 | 73 | 1017.3 |
| 20260902061241 | 71 | 244 | 0.0 | 0.0 | 0.00 | 0.19 | 0.00 | 73 | 1017.3 |
| 20260902060936 | 71 | 244 | 0.0 | 0.0 | 0.00 | 0.19 | 0.00 | 73 | 1017.3 |
| 20260902060630 | 71 | 244 | 0.0 | 1.0 | 0.00 | 0.19 | 0.00 | 73 | 1017.3 |
| 20260902060322 | 71 | 290 | 0.0 | 0.0 | 0.00 | 0.19 | 0.00 | 73 | 1017.3 |
| 20260902060024 | 71 | 313 | 0.0 | 0.0 | 0.00 | 0.19 | 0.00 | 73 | 1017.3 |
| 20260902055722 | 71 | 313 | 0.0 | 0.0 | 0.00 | 0.19 | 0.00 | 73 | 1017.3 |
| 20260902055417 | 71 | 217 | 0.0 | 0.0 | 0.00 | 0.19 | 0.00 | 72 | 1017.3 |
| 20260902055120 | 71 | 194 | 0.0 | 1.0 | 0.00 | 0.19 | 0.00 | 72 | 1017.4 |
| 20260902054815 | 71 | 286 | 0.0 | 1.0 | 0.00 | 0.19 | 0.00 | 72 | 1017.3 |
| 20260902054518 | 71 | 321 | 0.0 | 0.0 | 0.00 | 0.19 | 0.00 | 72 | 1017.3 |
| 20260902054220 | 71 | 300 | 0.0 | 0.0 | 0.00 | 0.19 | 0.00 | 72 | 1017.4 |
| 20260902053909 | 71 | 288 | 0.0 | 0.0 | 0.00 | 0.19 | 0.00 | 72 | 1017.2 |
| 20260902053600 | 71 | 288 | 0.0 | 3.0 | 0.00 | 0.19 | 0.00 | 72 | 1017.2 |
| 20260902053247 | 71 | 294 | 0.0 | 3.0 | 0.00 | 0.19 | 0.00 | 72 | 1017.3 |
| 20260902052940 | 71 | 305 | 0.0 | 3.0 | 0.00 | 0.19 | 0.00 | 71 | 1017.4 |
| 20260902052630 | 71 | 287 | 0.0 | 3.0 | 0.00 | 0.19 | 0.00 | 71 | 1017.4 |
| 20260902051856 | 71 | 250 | 0.0 | 3.0 | 0.00 | 0.19 | 0.00 | 71 | 1017.3 |
| 20260902051552 | 71 | 292 | 0.0 | 3.0 | 0.00 | 0.19 | 0.00 | 71 | 1017.5 |
| 20260902050358 | 72 | 274 | 1.0 | 5.0 | 0.00 | 0.19 | 0.00 | 70 | 1017.5 |
| 20260902050050 | 72 | 318 | 0.0 | 5.0 | 0.00 | 0.19 | 0.00 | 70 | 1017.5 |
| 20260902045749 | 72 | 297 | 1.0 | 5.0 | 0.00 | 0.19 | 0.00 | 69 | 1017.5 |
| 20260902045444 | 72 | 256 | 0.0 | 5.0 | 0.00 | 0.19 | 0.00 | 69 | 1017.4 |
| 20260902045136 | 72 | 302 | 0.0 | 5.0 | 0.00 | 0.19 | 0.00 | 69 | 1017.3 |
| 20260902044831 | 72 | 269 | 0.0 | 3.0 | 0.00 | 0.19 | 0.00 | 68 | 1017.4 |
| 20260902044518 | 72 | 319 | 0.0 | 2.0 | 0.00 | 0.19 | 0.00 | 68 | 1017.3 |
| 20260902044220 | 72 | 296 | 0.0 | 0.0 | 0.00 | 0.19 | 0.00 | 68 | 1017.3 |
| 20260902043913 | 72 | 271 | 0.0 | 1.0 | 0.00 | 0.19 | 0.00 | 68 | 1017.2 |
| 20260902043615 | 72 | 322 | 0.0 | 3.0 | 0.00 | 0.19 | 0.00 | 68 | 1017.1 |
| 20260902043308 | 72 | 248 | 0.0 | 3.0 | 0.00 | 0.19 | 0.00 | 68 | 1017.1 |
| 20260902043002 | 72 | 268 | 0.0 | 3.0 | 0.00 | 0.19 | 0.00 | 68 | 1017.2 |
| 20260902042701 | 72 | 302 | 0.0 | 2.0 | 0.00 | 0.19 | 0.00 | 67 | 1017.4 |
| 20260902042349 | 72 | 350 | 0.0 | 2.0 | 0.00 | 0.19 | 0.00 | 67 | 1017.2 |
| 20260902042053 | 72 | 227 | 0.0 | 1.0 | 0.00 | 0.19 | 0.00 | 67 | 1017.1 |
| 20260902041751 | 72 | 296 | 0.0 | 1.0 | 0.00 | 0.19 | 0.00 | 67 | 1017.1 |